Flag for Germany Weather past 2 weeks in Würzburg, Bavaria, Germany

Now
36 °F

Fog.


Feels Like: 36 °F
Forecast: 46 / 68 °F
Wind: 1 mph from East

Location: Wuerzburg


UV Index: 3 (Moderate)

Visibility: 0 mi


Pressure: 29.98 "Hg

Humidity: 99%

Dew point: 36 °F

Location of WürzburgLocation

Historic Weather in Würzburg

°F

Würzburg temperature yesterday

Maximum temperature yesterday: 50 °F (at 2:00 PM)
Minimum temperature yesterday: 41 °F (at 11:00 PM)
Average temperature yesterday: 45 °F

Past Weeks' High & Low Weather Summary

 TemperatureHumidityPressure
High73 °F (Apr 4, 4:00 PM)98% (Apr 19, 2:00 AM)30.42 "Hg (Apr 19, 2:00 AM)
Low33 °F (Apr 17, 7:00 AM)28% (Apr 17, 5:00 PM)29.65 "Hg (Apr 4, 4:00 PM)
Average52 °F65%30.06 "Hg
* Reported Apr 4 3:00 AM — Apr 19 3:00 AM, Würzburg, Weather by CustomWeather, © 2014

Note: Actual official high and low records may vary slightly from our data, if they occured in-between our weather recording intervals... More about our weather records

Advertising

Historic Weather Conditions — Data for Previous 24 hours

 ConditionsComfort  
Time TempWeatherWind HumidityBarometerVisibility
3:00 AM
Apr 19
36 °FFog.2 mph98%29.97 "Hg0 mi
2:00 AM37 °FFog.1 mph98%29.98 "Hg0 mi
1:00 AM38 °FPassing clouds.No wind97%29.97 "Hg9 mi
12:00 AM40 °FPassing clouds.2 mph95%29.96 "Hg9 mi
11:00 PM
Apr 18
41 °FOvercast.1 mph94%29.96 "Hg19 mi
10:00 PM41 °FSprinkles. Overcast.3 mph95%29.96 "Hg5 mi
9:00 PM41 °FOvercast.No wind92%29.94 "Hg28 mi
8:00 PM42 °FSprinkles. Overcast.2 mph90%29.93 "Hg11 mi
7:00 PM43 °FSprinkles. Overcast.9 mph87%29.90 "Hg9 mi
6:00 PM44 °FOvercast.2 mph85%29.88 "Hg34 mi
5:00 PM43 °FOvercast.5 mph85%29.88 "Hg34 mi
4:00 PM47 °FOvercast.5 mph64%29.87 "Hg34 mi
3:00 PM49 °FPartly sunny.2 mph59%29.86 "Hg25 mi
2:00 PM50 °FPartly sunny.7 mph61%29.85 "Hg34 mi
1:00 PM49 °FScattered clouds.2 mph71%29.86 "Hg28 mi
12:00 PM47 °FOvercast.2 mph74%29.87 "Hg25 mi
11:00 AM44 °FOvercast.2 mph81%29.87 "Hg16 mi
10:00 AM44 °FOvercast.2 mph85%29.86 "Hg19 mi
9:00 AM44 °FLight rain. Overcast.5 mph89%29.85 "Hg9 mi
8:00 AM45 °FOvercast.N/A80%29.84 "Hg19 mi
7:00 AM45 °FLight rain. Overcast.2 mph72%29.83 "Hg19 mi
6:00 AM46 °FLight rain. Overcast.2 mph63%29.84 "Hg19 mi
5:00 AM47 °FLight rain. Overcast.2 mph56%29.85 "Hg19 mi
4:00 AM47 °FOvercast.1 mph48%29.85 "Hg28 mi
Weather by CustomWeather, © 2014

See weather overview